Home   Weather   Township of Fairfield   Past weeks
Flag for USA

Past Weather in Township of Fairfield, South Dakota, USA — Yesterday and Last 2 Weeks

Now
12 °F

Clear.


Feels Like: 12 °F
Forecast: 43 / 15 °F
Wind: No wind

Location: Aberdeen Regional Airport

Current Time: Apr 4, 2020 at 1:56:08 am

Latest Report: Apr 4, 2020 at 12:53 am


Visibility: 10 mi

Pressure: 30.34 "Hg

Humidity: 84%

Dew Point: 8 °F

Location of Township of FairfieldLocation

Past Weather in Township of Fairfield — Graph

°F

Township of Fairfield Temperature Yesterday

Maximum temperature yesterday: 28 °F (at 4:53 pm)
Minimum temperature yesterday: 13 °F (at 11:53 pm)
Average temperature yesterday: 21 °F

High & Low Weather Summary for the Past Weeks

 TemperatureHumidityPressure
High65 °F (Mar 30, 3:53 pm)97% (Mar 27, 9:53 am)30.73 "Hg (Mar 27, 9:53 am)
Low9 °F (Mar 20, 6:53 am)20% (Mar 29, 4:53 pm)29.68 "Hg (Mar 24, 3:31 pm)
Average34 °F72%30.03 "Hg
* Reported Mar 19 11:53 pm — Apr 3 11:53 pm, Township of Fairfield. Weather by CustomWeather, © 2020

Note: Actual official high and low records may vary slightly from our data, if they occured in-between our weather recording intervals... More about our weather records

Township of Fairfield Weather History for the Previous 24 Hours

Scroll right to see more
 ConditionsComfort  
Time TempWeatherWind HumidityBarometerVisibility
11:53 pm
Fri, Apr 3
13 °FClear.No wind88%30.36 "Hg10 mi
10:53 pm16 °FClear.No wind80%30.36 "Hg10 mi
9:53 pm19 °FClear.3 mph68%30.35 "Hg10 mi
8:53 pm21 °FClear.3 mph62%30.35 "Hg10 mi
7:53 pm23 °FSunny.7 mph60%30.34 "Hg10 mi
6:53 pm28 °FSunny.9 mph49%30.33 "Hg10 mi
5:53 pm28 °FSunny.8 mph49%30.33 "Hg10 mi
4:53 pm28 °FSunny.12 mph53%30.32 "Hg10 mi
3:53 pm27 °FSunny.10 mph53%30.33 "Hg10 mi
2:53 pm25 °FSunny.12 mph55%30.34 "Hg10 mi
1:53 pm24 °FSunny.10 mph57%30.34 "Hg10 mi
1:18 pm24 °FPassing clouds.13 mph62%30.29 "Hg10 mi
12:53 pm24 °FPartly sunny.9 mph62%30.35 "Hg10 mi
12:18 pm22 °FLight snow. Partly sunny.8 mph68%30.29 "Hg10 mi
11:53 am22 °FPassing clouds.16 mph66%30.36 "Hg10 mi
11:30 am21 °FScattered clouds.13 mph68%30.29 "Hg10 mi
10:53 am21 °FLight snow. Partly sunny.14 mph71%30.35 "Hg10 mi
9:53 am19 °FLight snow. Partly sunny.17 mph71%30.34 "Hg9 mi
8:53 am18 °FPassing clouds.15 mph74%30.33 "Hg10 mi
8:06 am18 °FOvercast.14 mph74%30.25 "Hg10 mi
6:53 am18 °FLight snow. Mostly cloudy.16 mph74%30.31 "Hg6 mi
5:53 am19 °FOvercast.17 mph74%30.29 "Hg10 mi
5:38 am19 °FMostly cloudy.16 mph74%30.22 "Hg10 mi
5:05 am19 °FMostly cloudy.14 mph74%30.22 "Hg10 mi
3:53 am19 °FMostly cloudy.17 mph74%30.27 "Hg10 mi
2:53 am19 °FOvercast.17 mph74%30.26 "Hg10 mi
2:07 am19 °FLight snow. Mostly cloudy.18 mph74%30.20 "Hg5 mi
1:53 am18 °FLight snow. Mostly cloudy.16 mph77%30.27 "Hg2 mi
1:33 am18 °FMostly cloudy.17 mph77%30.20 "Hg10 mi
1:23 am19 °FLight snow. Mostly cloudy.21 mph74%30.21 "Hg10 mi
Weather by CustomWeather, © 2020

See weather overview

Advertising